Find Starlink 6202

NORAD ID: 56896 Int'l Des: 2023-083 Owner: SPXS Country: US Constellation: starlink operational
LEOCIRCULAR

Live Position

Loading 3D Globe...

About Starlink 6202

Description loading...

Upcoming Passes

Passes for default location (London). Set your location on the main map for personalized predictions.

Altitude History

Loading altitude history...

Two-Line Element Set

1 56896U 23083W 26126.47063694 .00001998 00000-0 82102-4 0 9990
2 56896 43.0006 122.5929 0001166 282.0465 78.0256 15.27586025160534
Epoch: May 6, 2026 • Age: 9 hours

Current Status

Altitude 483.5 km
Velocity 7.63 km/s
Sub-Earth Point -3.50°S, 140.39°E
Launch Date Jun 12, 2023
Age 2.8 years
Type internet

Technical Details

Classification Payload
Mass 305.00 kg
Dry Mass 290.00 kg
Total Mass 305.00 kg
Length 0.20 m
Diameter 2.80 m
Span 9.00 m
Shape Box + pan
Manufacturer SPXS
Bus Type Starlink
Phase Status In Orbit
Owner/State SPXS/US

Most Searched